Location: Leiter
(44.7178°N, 106.2687°W)
Time: 01:35:04
(UTC+00:00)

NOAA 19 - Pass Details

Date: 02 July 2022
Orbit: 840 x 861 km, 99.1° (Epoch: 07 August)

Event Time Altitude Azimuth Distance (km) Brightness Sun altitude
Rises 03:45:54 0° 213° (SSW) 3,418 8.3 -7.9°
Reaches altitude 10° 03:49:22 10° 236° (WSW) 2,484 7.8 -8.4°
Maximum altitude 03:52:26 15° 271° (W) 2,147 8.0 -8.8°
Drops below altitude 10° 03:55:31 10° 305° (NW) 2,487 9.2 -9.1°
Sets 03:59:01 0° 328° (NNW) 3,424 10.3 -9.6°
